Regional Weather Roundup
Issued by NWS

Home | Current Version | Previous Version | Graphics & Text | Print | Product List | Glossary On
Versions: 1 2 3 4 5 6 7 8 9 10 11 12 13 14 15 16 17 18 19 20 21 22 23 24 25 26 27 28 29 30 31 32 33 34 35 36 37 38 39 40 41 42 43 44 45 46 47 48 49 50
000
ASUS43 KBIS 301810
RWRND

NORTH DAKOTA REGIONAL WEATHER ROUNDUP
NATIONAL WEATHER SERVICE BISMARCK ND
100 PM CDT FRI SEP 30 2016

NOTE: "FAIR" INDICATES FEW OR NO CLOUDS BELOW 12,000 FEET WITH NO
SIGNIFICANT WEATHER AND/OR OBSTRUCTIONS TO VISIBILITY.


NDZ001>003-009>011-017-301900-
NORTHWEST NORTH DAKOTA

CITY           SKY/WX    TMP DP  RH WIND       PRES   REMARKS
WILLISTON      CLOUDY    63  49  60 S12G21    30.01F
6HR MIN TEMP:  57; 6HR MAX TEMP:  65; 6HR PCP: TRACE;

MINOT          PTSUNNY   63  48  58 SE9       30.09S
MINOT AFB      CLOUDY    62  48  59 S15       30.08S
$$

NDZ018>021-031>035-040>046-301900-
SOUTHWEST NORTH DAKOTA

CITY           SKY/WX    TMP DP  RH WIND       PRES   REMARKS
BISMARCK       PTSUNNY   66  48  52 SE18      30.12F
6HR MIN TEMP:  52; 6HR MAX TEMP:  66; 6HR PCP: TRACE;

DICKINSON      CLOUDY    61  45  55 S14       30.04F
GARRISON         N/A     62  49  62 S12       30.11R
6HR MIN TEMP:  52; 6HR MAX TEMP:  62;

HETTINGER ARPT CLOUDY    62  44  51 SE14      30.09F
$$

NDZ004>008-012>016-024-026-027-054-301900-
NORTHEAST NORTH DAKOTA

CITY           SKY/WX    TMP DP  RH WIND       PRES   REMARKS
GRAND FORKS    PTSUNNY   67  51  56 S13G23    30.26F
GRND FRKS AFB  MOSUNNY   66  51  58 S15       30.25F
DEVILS LAKE    MOSUNNY   64  51  62 S18       30.21F
$$

NDZ022-023-025-028>030-036>039-047>053-301900-
SOUTHEAST NORTH DAKOTA

CITY           SKY/WX    TMP DP  RH WIND       PRES   REMARKS
FARGO          SUNNY     68  51  54 SE14      30.28F
6HR MIN TEMP:  50; 6HR MAX TEMP:  68;

JAMESTOWN      MOSUNNY   63  49  60 S20G28    30.22F
$$





USA.gov is the U.S. government's official web portal to all federal, state and local government web resources and services.